Погода в Ялтуровске

Погода в Ялтуровске : погода сейчас, прогноз погоды и архив. Всё, что Вы хотите узнать о погоде в Ялтуровске!

Хотите узнать прогноз погоды в Ялтуровске? Тогда Вам сюда: Погода в Ялтуровске

Поиск расширенной информации на нашем сайте:

Другие новости

Новости СМИ2

Главная страница сайта

Новости сайта

03.07.2017

Напоминаем, что на нашем специализированном сайте Метеоцентр.Азия вы можете получить высокодетализированные автоматические прогнозы погоды по пунктам России, СНГ и мира в авиационном формате (включающие направление и скорость ветра, видимость, явления погоды, количество и форму облачности, нижнюю и верхнюю границу облачности).


Погода в Ялтуровске - сегодня

Время (UTC), дата Ветер
(°,м/с) 
Видим.   Явления Облачность Т
(°С)
Тd
(°С)
f(%) Тe
(°С)
Pmin
(гПа)
dP
(гПа)
Po
(мм)
O2
(г/м3)
Тmin Tmax R s Состояние
почвы
15 16.09.17 190 (Ю) 20000 м    ясно 
+15.3 +9.5 68 +16  1012.1  -0.9  754  286    +23.7       
18 16.09.17 200 (Ю) 20000 м    ясно 
+14.1 +10 76 +15  1010.9  -1.2  753  287           
21 16.09.17 250 (З) 20000 м    3/0 верхняя 
[Ci sp]
+15.6 +11.1 75 +19  1010.3  -0.6  752  285           
00 17.09.17 270 (З) 20000 м    4/0 верхняя 
[Cs]
+13.1 +10.1 82 +15  1010.8  0.5  753  288           
03 17.09.17 270 (З) 20000 м    10/0 средняя, верхняя 
[As op|Ci]
+12.4 +9.4 82 +12  1011.8  753  289  +11.5         
06 17.09.17 290 (З) 20000 м    8/4 1000 м верхняя 
[Cu hum|Ci sp]
+16.4 +7.5 56 +16  1012  0.3  754  285           
09 17.09.17 280 (З) 4{10}  20000 м    8/6 600 м кучево-дожд., верхняя 
[Cb calv|Ci sp]
+19.4 +5.5 40 +20  1011.4  -0.5  753  282           
12 17.09.17 270 (З) 5{11}  20000 м    8/8 600 м кучево-дожд. 
[Cb calv]
+19.6 +4 36 +20  1010.8  -0.6  753  282           
18 17.09.17 260 (З) 20000 м    6/3 1000 м верхняя 
[Sc diur, vesp|Ci sp]
+12.4 +5.4 62 +12  1011.5  753  289           
21 17.09.17 250 (З) 20000 м    3/0 верхняя 
[Ci sp]
+10.3 +5.2 71 +10  1010.9  -0.7  753  291           
00 18.09.17 250 (З) 20000 м    8/3 1000 м средняя, верхняя 
[Sc|Ac trans|Ci sp]
+10.3 +5.2 71 +9  1010.9  -0.6  752  291           
03 18.09.17 270 (З) 20000 м    8/5 600 м кучево-дожд., средняя, верхняя 
[Cb calv|Ac trans|Ci sp]
+11.3 +6.8 74 +10  1009.9  -0.4  752  290  +9.3         
06 18.09.17 290 (З) 20000 м  {ливн. осадки}  6/4 600 м кучево-дожд., средняя, верхняя 
[Cb calv|Ac trans|Ci sp]
+14.1 +8.3 68 +14  1009.9  0.1  752  287           
15 18.09.17 300 (СЗ) 20000 м    8/6 600 м кучево-дожд., средняя 
[Cb calv|Ac As]
+10.2 +2.4 58 +10  1014.9  2.6  756  293    +16.5  0.0     
18 18.09.17 300 (СЗ) 20000 м    ясно 
+7.2 +2.1 70 +6  1016.4  1.4  757  297           
21 18.09.17 290 (З) 20000 м    10/10 600 м 
[Sc]
+7.4 +2.8 73 +7  1017.3  0.9  757  297           
00 19.09.17 290 (З) 20000 м    10/10 600 м 
[Sc]
+7.4 +2.9 73 +7  1019  1.6  759  297           
03 19.09.17 270 (З) 20000 м    10/10 600 м 
[Sc]
+7.3 +2.8 73 +7  1020.4  0.2  760  298  +6.8         
06 19.09.17 280 (З) 20000 м    10/10 600 м 
[Sc]
+10 +2.5 60 +10  1021.5  1.2  761  295           
09 19.09.17 230 (ЮЗ) 20000 м    9/8 600 м кучево-дожд., средняя 
[Cb calv|Ac trans]
+13.1 +1.4 45 +13  1021.3  -0.1  760  292           
12 19.09.17 240 (ЮЗ) 20000 м    10/10 600 м кучево-дожд. 
[Cb calv]
+11.2 +1.6 52 +11  1021  -0.3  760  294           
15 19.09.17 170 (Ю) 4000 м  слаб. дождь{ливн. осадки}  10/10 600 м 
[Sc]
+7.9 +5.9 87 +8  1020.9  -0.2  760  297    +15.3  0.6     
18 19.09.17 140 (ЮВ) 20000 м  {ливн. осадки, дождь}  8/6 600 м средняя 
[Sc|Ac trans]
+7.5 +6.3 92 +7  1018.2  -2.6  758  296           
21 19.09.17 150 (ЮВ) 20000 м    ясно 
+8.7 +6.8 88 +8  1014.7  -3.5  755  294           
00 20.09.17 210 (ЮЗ) 20000 м    6/0 средняя 
[Ac As]
+8.6 +7.1 90 +10  1014.1  -0.6  755  294           
Время (UTC), дата Ветер
(°,м/с) 
Видим.   Явления Облачность Т
(°С)
Тd
(°С)
f(%) Тe
(°С)
Pmin
(гПа)
dP
(гПа)
Po
(мм)
O2
(г/м3)
Тmin Tmax R s Состояние
почвы

Для получения пояснительной информации подведите курсор к названию столбца.

ПОГОДА в Ялтуровске - архив

Всё, что Вы хотите узнать о погоде в Ялтуровске - удобно и подробно!

Выберите нужную дату (начиная с 1 января 2015* года) и нажмите кнопку "Найти".
Будут отображены архивные сводки погоды по пункту Ялтуровск, начиная с указанной даты.


Отображать данные в формате CSV (для использования в таблицах Excel)


Внимание! Наш архив погоды предназначен исключительно для личного некоммерческого использования в познавательных целях. Если Вам необходимы официальные справки о состоянии погоды (для производственных, юридических, коммерческих и т.п. целей), обращайтесь в органы Росгидромета.

*Примечание: данная дата относится к архиву по метеостанциям СССР (Россия, СНГ, Балтия).
Архив по метеостанциям Зарубежной Европы и Азии (кроме Китая) хранится 10 дней, по другим регионам земного шара (Китай, Африка, Америка, Австралия, Океания) - 1 день.

Ялтуровск - район местоположения метеостанции


Название, широта, долгота, высота метеостанции:
Ялтуровск 56.7°ш. 66.3°д. 61 м над ур. моря [Российская Федерация]

Дополнительная информация

В oтличие oт бoльшинства пoгoдных сайтoв мы публикуем пoдрoбную метеoинфoрмацию в детальнoм прoфессиoнальнoм фoрмате.

Характеристики температуры и влажнoсти вoздуха измеряются на высoте 2 м в тени вдали oт зданий и деревьев.
Скoрoсть ветра измеряется на высoте 10 м (на урoвне рoста челoвека скoрoсть ветра ниже в 1.5-2 раза). Если метеoстанция нахoдится в гoрoде или в лесу, тo скoрoсть ветра занижена на 2-4 м/с пo сравнению с oткрытым местoм. Скoрoсть ветра над акватoриями крупных рек и oзёр, а также на вершинах хoлмoв на 2-5 м/с выше, чем в oбычных услoвиях.
Атмoсфернoе давление в разных тoчках местнoсти мoжет значительнo oтличаться oт давления на метеoстанции, в зависимoсти oт услoвий рельефа (при пoдъёме на 10 м давление пoнижается примернo на 1 мм рт.ст.).